ラヴジョイ彗星

C/2013 R1 ( Lovejoy )

English version
Home page
Updated on June 11, 2016

---------------------------------------------------------------------

・ プロフィール

発見日 2013年9月7日
発見光度 14.4等
発見者 Terry Lovejoy (Thornlands, Qld., Australia)

・ 写真集

・ 軌道要素

Epoch 2013 Dec. 14.0 TT = JDT 2456640.5
T 2013 Dec. 22.73330 TT                                 MPCW
q   0.8118217            (2000.0)            P               Q
z  +0.0019607      Peri.   67.16669     -0.25259491     -0.46477067
                   Node    70.71117     +0.12869323     -0.88542378
e   0.9984083      Incl.   64.04102     +0.95897542     -0.00359827
From 3555 observations 2013 Sept. 7-2014 Sept. 14, mean residual 0".7.
     Nongravitational parameters A1 = +0.51, A2 = -0.3037.

・ 星図

・ 光度変化

        m1 = 6.7 + 5 logΔ + 15.0 log r  [  , 0]  (              〜2013年12月22日)
        m1 = 6.3 + 5 logΔ + 10.0 log r  [ 0,72]  (2013年12月22日〜2014年 3月 4日)
        m1 = 4.5 + 5 logΔ + 20.0 log r  [72,  ]  (2014年 3月 4日〜              )

---------------------------------------------------------------------

軌道要素はM.P.E.C. 2015-B177に掲載されたものです。
星図はステラナビゲータ Ver.8 (アストロアーツ) で作成したものです。
光度グラフはComet for Windowsで作成したものです。

---------------------------------------------------------------------

Copyright(C) Seiichi Yoshida (comet@aerith.net). All rights reserved.